Location: Northam
(31.6525°S, 116.6655°E)
Time: 12:09:44
(UTC+08:00)

X-37B - Pass Details

Date: 25 January 2021
Orbit: 383 x 391 km, 45.0° (Epoch: 27 February)

Event Time Altitude Azimuth Distance (km) Brightness Sun altitude
Exits shadow 04:37:51 11° 258° (WSW) 1,367 2.9 -11.2°
Maximum altitude 04:40:17 23° 206° (SSW) 902 2.5 -10.7°
Drops below altitude 10° 04:42:55 10° 151° (SSE) 1,432 4.4 -10.2°
Sets 04:45:17 0° 135° (SE) 2,290 6.2 -9.8°
